Location: Shepherdstown, WV
(39.4326°N, 77.8042°W)
Time: 18:42:59
(UTC-04:00)

Vanguard 3 - Pass Details

Date: 30 July 2021
Orbit: 510 x 3260 km, 33.3° (Epoch: 18 September)

Event Time Altitude Azimuth Distance (km) Brightness Sun altitude
Rises 00:02:10 0° 278° (W) 7,033 12.3 -29.5°
Reaches altitude 10° 00:06:49 10° 275° (W) 6,139 11.8 -29.8°
Maximum altitude 00:26:03 58° 204° (SSW) 3,387 9.9 -30.9°
Enters shadow 00:31:19 46° 159° (SSE) 3,477 9.8 -31.1°
